This is the latest recevied weather packets stored in our database for station/object N4ASP-13. If no packets are shown the sender has not sent any weather packets the latest 10 day(s).
| Time | Temp. | Humidity | Pressure | Rain* | Wind** | Luminosity | Snow |
|---|---|---|---|---|---|---|---|
| 1778164763 | 16.67° C | 95% | 1010.4 hPa | 0 mm | - | 369 W/m² | - |
| 1778164704 | 16.67° C | 95% | 1010.2 hPa | 0 mm | - | 385 W/m² | - |
| 1778164643 | 16.67° C | 95% | 1010.2 hPa | 0 mm | - | 506 W/m² | - |
| 1778164584 | 16.67° C | 95% | 1010.2 hPa | 0 mm | - | 506 W/m² | - |
| 1778164523 | 16.67° C | 95% | 1010.2 hPa | 0 mm | - | 429 W/m² | - |
| 1778164464 | 16.67° C | 95% | 1010.4 hPa | 0 mm | - | 387 W/m² | - |
| 1778164403 | 16.67° C | 95% | 1010.4 hPa | 0 mm | - | 373 W/m² | - |
| 1778164344 | 16.67° C | 95% | 1010.4 hPa | 0 mm | - | 388 W/m² | - |
| 1778164283 | 16.67° C | 95% | 1010.4 hPa | 0 mm | - | 330 W/m² | - |
| 1778164224 | 16.67° C | 95% | 1010.4 hPa | 0 mm | - | 295 W/m² | - |
| 1778164163 | 16.67° C | 95% | 1010.2 hPa | 0 mm | - | 313 W/m² | - |
| 1778164104 | 16.67° C | 95% | 1010.4 hPa | 0 mm | - | 295 W/m² | - |
| 1778164044 | 16.67° C | 95% | 1010.4 hPa | 0 mm | - | 304 W/m² | - |
| 1778163983 | 16.67° C | 95% | 1010.2 hPa | 0 mm | - | 294 W/m² | - |
| 1778163923 | 16.67° C | 95% | 1010.4 hPa | 0 mm | - | 278 W/m² | - |
| 1778163864 | 16.67° C | 95% | 1010.5 hPa | 0 mm | - | 255 W/m² | - |
| 1778163803 | 16.67° C | 95% | 1010.5 hPa | 0 mm | - | 225 W/m² | - |
| 1778163744 | 16.67° C | 95% | 1010.5 hPa | 0 mm | - | 155 W/m² | - |
| 1778163683 | 16.67° C | 95% | 1010.2 hPa | 0 mm | - | 151 W/m² | - |
| 1778163624 | 16.67° C | 95% | 1010.4 hPa | 0 mm | - | 142 W/m² | - |
| 1778163564 | 16.67° C | 95% | 1010.4 hPa | 0 mm | - | 135 W/m² | - |
| 1778163503 | 16.67° C | 95% | 1010.4 hPa | 0 mm | - | 130 W/m² | - |
| 1778163444 | 16.67° C | 95% | 1010.5 hPa | 0 mm | - | 137 W/m² | - |
| 1778163384 | 16.67° C | 95% | 1010.4 hPa | 0 mm | - | 123 W/m² | - |
| 1778163325 | 16.67° C | 95% | 1010.5 hPa | 0 mm | - | 109 W/m² | - |
* Rain latest hour (hover to see other rain measurements)
** Current wind speed in m/s (hover to see current wind gust speed)